Location: Pella
(41.4080°N, 92.9160°W)
Time: 10:51:48
(UTC-05:00)

ASTRO E2 - Visible Passes

Search period start: 23 July 2014 00:00
Search period end: 02 August 2014 00:00
Orbit: 535 x 543 km, 31.4° (Epoch: 22 July)

Date Brightness Start Highest point End Pass type
(mag) Time Alt. Az. Time Alt. Az. Time Alt. Az.
23 Jul 5.1 05:05:06 10° S 05:06:32 12° SSE 05:07:57 10° SE visible
24 Jul 4.9 04:54:09 10° SSW 04:56:12 13° SSE 04:58:14 10° SE visible
25 Jul 4.7 04:44:23 13° S 04:45:52 15° SSE 04:48:18 10° SE visible
26 Jul 4.5 04:34:38 16° S 04:35:33 17° S 04:38:14 10° SE visible
27 Jul 4.4 04:24:55 18° S 04:25:14 18° S 04:28:06 10° SE visible
28 Jul 4.4 04:15:14 19° SSE 04:15:14 19° SSE 04:17:54 10° SE visible
29 Jul 4.5 04:05:38 18° SSE 04:05:38 18° SSE 04:07:39 10° SE visible
30 Jul 4.8 03:56:08 15° SE 03:56:08 15° SE 03:57:22 10° SE visible
30 Jul 4.6 05:32:11 10° SW 05:34:38 15° SSW 05:37:04 10° SSE visible
31 Jul 5.2 03:46:46 11° SE 03:46:46 11° SE 03:47:03 10° SE visible
31 Jul 4.7 05:22:13 10° SW 05:24:17 14° SSW 05:26:21 10° SSE visible
01 Aug 4.8 05:12:58 11° SSW 05:13:56 12° SSW 05:15:23 10° S visible
